Time,TemperatureF,DewpointF,PressureIn,WindDirection,WindDirectionDegrees,WindSpeedMPH,WindSpeedGustMPH,Humidity,HourlyPrecipIn,Conditions,Clouds,dailyrainin,SolarRadiationWatts/m^2,SoftwareType,DateUTC
2013-08-09 00:00:00,58.2,52.7,29.92,SSE,160,0.0,0.0,82,0.00,CLR,OVC,0.00,0.0,WeatherDisplay:10.37,2013-08-08 23:00:00,
2013-08-09 00:05:00,58.2,53.1,29.92,SSE,160,0.0,0.0,83,0.00,CLR,OVC,0.00,0.0,WeatherDisplay:10.37,2013-08-08 23:05:00,
2013-08-09 00:10:00,58.3,53.2,29.92,SSE,160,0.0,0.0,83,0.00,CLR,OVC,0.00,0.0,WeatherDisplay:10.37,2013-08-08 23:10:00,
2013-08-09 00:15:00,58.3,53.2,29.92,SSE,161,0.0,0.0,83,0.00,CLR,OVC,0.00,0.0,WeatherDisplay:10.37,2013-08-08 23:15:00,
2013-08-09 00:21:00,58.5,53.0,29.91,SSE,160,0.0,0.0,82,0.00,CLR,OVC,0.00,0.0,WeatherDisplay:10.37,2013-08-08 23:21:00,
2013-08-09 00:26:00,58.5,53.0,29.91,SSE,161,0.0,0.0,82,0.00,CLR,OVC,0.00,0.0,WeatherDisplay:10.37,2013-08-08 23:26:00,
2013-08-09 00:31:00,58.6,53.1,29.91,SSW,210,0.0,0.0,82,0.00,FEW,OVC,0.00,0.0,WeatherDisplay:10.37,2013-08-08 23:31:00,
2013-08-09 00:37:00,58.8,53.3,29.91,SSW,210,0.0,0.0,82,0.00,FEW,OVC,0.00,0.0,WeatherDisplay:10.37,2013-08-08 23:37:00,
2013-08-09 00:42:00,58.8,53.3,29.91,SSW,210,0.0,0.0,82,0.00,FEW,OVC,0.00,0.0,WeatherDisplay:10.37,2013-08-08 23:42:00,
2013-08-09 00:47:00,58.9,53.4,29.91,SSW,210,0.0,0.0,82,0.00,FEW,OVC,0.00,0.0,WeatherDisplay:10.37,2013-08-08 23:47:00,
2013-08-09 00:53:00,58.9,53.4,29.91,SSW,210,0.0,0.0,82,0.00,FEW,OVC,0.00,0.0,WeatherDisplay:10.37,2013-08-08 23:53:00,
2013-08-09 00:58:00,58.9,53.7,29.91,SSW,210,0.0,0.0,83,0.00,FEW,OVC,0.00,0.0,WeatherDisplay:10.37,2013-08-08 23:58:00,
2013-08-09 01:03:00,58.9,53.4,29.91,SSW,210,0.0,0.0,82,0.00,CLR,OVC,0.00,0.0,WeatherDisplay:10.37,2013-08-09 00:03:00,
2013-08-09 01:09:00,59.0,53.8,29.91,SSW,210,0.0,0.0,83,0.00,CLR,OVC,0.00,0.0,WeatherDisplay:10.37,2013-08-09 00:09:00,
2013-08-09 01:14:00,58.9,53.7,29.90,SSW,210,0.0,0.0,83,0.00,CLR,OVC,0.00,0.0,WeatherDisplay:10.37,2013-08-09 00:14:00,
2013-08-09 01:20:00,58.9,53.7,29.90,West,269,1.2,0.0,83,0.00,CLR,OVC,0.00,0.0,WeatherDisplay:10.37,2013-08-09 00:20:00,
2013-08-09 01:25:00,59.0,53.8,29.90,West,269,0.0,0.0,83,0.00,CLR,OVC,0.00,0.0,WeatherDisplay:10.37,2013-08-09 00:25:00,
2013-08-09 01:30:00,59.0,53.5,29.90,West,269,0.0,0.0,82,0.00,CLR,OVC,0.00,0.0,WeatherDisplay:10.37,2013-08-09 00:30:00,
2013-08-09 01:36:00,59.1,53.3,29.90,West,268,0.0,0.0,81,0.00,FEW,OVC,0.00,0.0,WeatherDisplay:10.37,2013-08-09 00:36:00,
2013-08-09 01:41:00,59.2,53.4,29.89,West,269,0.0,0.0,81,0.00,FEW,OVC,0.00,0.0,WeatherDisplay:10.37,2013-08-09 00:41:00,
2013-08-09 01:46:00,59.3,53.5,29.89,West,274,0.0,0.0,81,0.00,FEW,OVC,0.00,0.0,WeatherDisplay:10.37,2013-08-09 00:46:00,
2013-08-09 01:51:00,59.3,53.5,29.89,West,274,0.0,0.0,81,0.00,FEW,OVC,0.00,0.0,WeatherDisplay:10.37,2013-08-09 00:51:00,
2013-08-09 01:57:00,59.3,53.5,29.89,West,274,0.0,0.0,81,0.00,FEW,OVC,0.00,0.0,WeatherDisplay:10.37,2013-08-09 00:57:00,
2013-08-09 02:03:00,59.3,53.8,29.89,West,274,0.0,0.0,82,0.00,FEW,OVC,0.00,0.0,WeatherDisplay:10.37,2013-08-09 01:03:00,
2013-08-09 02:08:00,59.2,53.7,29.89,SW,231,0.0,0.0,82,0.00,FEW,OVC,0.00,0.0,WeatherDisplay:10.37,2013-08-09 01:08:00,
2013-08-09 02:13:00,59.1,53.6,29.88,SW,231,0.0,0.0,82,0.00,FEW,OVC,0.00,0.0,WeatherDisplay:10.37,2013-08-09 01:13:00,
2013-08-09 02:18:00,59.0,53.5,29.88,SW,221,0.0,0.0,82,0.00,FEW,OVC,0.00,0.0,WeatherDisplay:10.37,2013-08-09 01:18:00,
2013-08-09 02:23:00,58.9,53.7,29.88,SSW,204,0.0,0.0,83,0.00,FEW,OVC,0.00,0.0,WeatherDisplay:10.37,2013-08-09 01:23:00,
2013-08-09 02:28:00,59.0,53.8,29.88,SSW,204,0.0,0.0,83,0.00,FEW,OVC,0.00,0.0,WeatherDisplay:10.37,2013-08-09 01:28:00,
2013-08-09 02:33:00,59.0,53.8,29.88,SE,140,1.2,1.2,83,0.00,BKN,OVC,0.00,0.0,WeatherDisplay:10.37,2013-08-09 01:33:00,
2013-08-09 02:38:00,59.1,53.9,29.88,SE,143,0.0,0.0,83,0.00,BKN,OVC,0.00,0.0,WeatherDisplay:10.37,2013-08-09 01:38:00,
2013-08-09 02:43:00,59.1,53.9,29.88,SSE,160,0.0,0.0,83,0.00,BKN,OVC,0.00,0.0,WeatherDisplay:10.37,2013-08-09 01:43:00,
2013-08-09 02:48:00,59.2,53.7,29.88,SW,235,1.2,1.2,82,0.00,BKN,OVC,0.00,0.0,WeatherDisplay:10.37,2013-08-09 01:48:00,
2013-08-09 02:53:00,59.2,53.7,29.88,SW,235,0.0,0.0,82,0.00,BKN,OVC,0.00,0.0,WeatherDisplay:10.37,2013-08-09 01:53:00,
2013-08-09 02:59:00,59.1,53.9,29.88,SW,235,0.0,0.0,83,0.00,BKN,OVC,0.00,0.0,WeatherDisplay:10.37,2013-08-09 01:59:00,
2013-08-09 03:05:00,59.0,54.2,29.88,SW,236,0.0,0.0,84,0.00,BKN,OVC,0.00,0.0,WeatherDisplay:10.37,2013-08-09 02:05:00,
2013-08-09 03:10:00,58.8,54.0,29.88,SW,228,0.0,0.0,84,0.00,BKN,OVC,0.00,0.0,WeatherDisplay:10.37,2013-08-09 02:10:00,
2013-08-09 03:15:00,58.8,54.0,29.88,SE,139,1.2,1.2,84,0.00,BKN,OVC,0.00,0.0,WeatherDisplay:10.37,2013-08-09 02:15:00,
2013-08-09 03:20:00,58.8,54.3,29.88,SE,129,0.0,0.0,85,0.00,BKN,OVC,0.00,0.0,WeatherDisplay:10.37,2013-08-09 02:20:00,
2013-08-09 03:26:00,58.8,54.3,29.88,SE,130,0.0,0.0,85,0.00,BKN,OVC,0.00,0.0,WeatherDisplay:10.37,2013-08-09 02:26:00,
2013-08-09 03:31:00,58.8,54.6,29.88,SE,130,0.0,0.0,86,0.00,BKN,OVC,0.00,0.0,WeatherDisplay:10.37,2013-08-09 02:31:00,
2013-08-09 03:37:00,58.9,54.7,29.88,SE,135,0.0,0.0,86,0.00,BKN,OVC,0.00,0.0,WeatherDisplay:10.37,2013-08-09 02:37:00,
2013-08-09 03:43:00,58.9,55.0,29.88,SE,135,0.0,0.0,87,0.00,BKN,OVC,0.00,0.0,WeatherDisplay:10.37,2013-08-09 02:43:00,
2013-08-09 03:48:00,58.8,54.9,29.88,SE,135,0.0,0.0,87,0.00,BKN,OVC,0.00,0.0,WeatherDisplay:10.37,2013-08-09 02:48:00,
2013-08-09 03:53:00,58.8,54.9,29.88,SE,136,0.0,0.0,87,0.01,RA,OVC,0.01,0.0,WeatherDisplay:10.37,2013-08-09 02:53:00,
2013-08-09 03:58:00,58.6,54.7,29.88,East,98,1.2,1.2,87,0.01,RA,OVC,0.01,0.0,WeatherDisplay:10.37,2013-08-09 02:58:00,
2013-08-09 04:04:00,58.4,54.9,29.88,SE,135,1.2,0.0,88,0.02,-RA,OVC,0.02,0.0,WeatherDisplay:10.37,2013-08-09 03:04:00,
2013-08-09 04:09:00,58.0,54.5,29.88,SE,139,1.2,1.2,88,0.02,-RA,OVC,0.02,0.0,WeatherDisplay:10.37,2013-08-09 03:09:00,
2013-08-09 04:14:00,57.6,54.4,29.88,SSE,165,0.0,0.0,89,0.02,-RA,OVC,0.02,0.0,WeatherDisplay:10.37,2013-08-09 03:14:00,
2013-08-09 04:20:00,57.4,54.2,29.88,SSW,198,0.0,0.0,89,0.02,-RA,OVC,0.02,0.0,WeatherDisplay:10.37,2013-08-09 03:20:00,
2013-08-09 04:25:00,57.2,54.3,29.88,West,270,1.2,1.2,90,0.03,-RA,OVC,0.03,0.0,WeatherDisplay:10.37,2013-08-09 03:25:00,
2013-08-09 04:30:00,57.0,54.1,29.88,West,270,1.2,0.0,90,0.03,-RA,OVC,0.03,0.0,WeatherDisplay:10.37,2013-08-09 03:30:00,
2013-08-09 04:36:00,56.9,54.3,29.88,West,278,1.2,0.0,91,0.03,-RA,OVC,0.03,0.0,WeatherDisplay:10.37,2013-08-09 03:36:00,
2013-08-09 04:41:00,56.8,54.2,29.88,West,278,0.0,0.0,91,0.03,-RA,OVC,0.03,0.0,WeatherDisplay:10.37,2013-08-09 03:41:00,
2013-08-09 04:46:00,56.8,54.5,29.88,West,278,0.0,0.0,92,0.03,-RA,OVC,0.03,0.0,WeatherDisplay:10.37,2013-08-09 03:46:00,
2013-08-09 04:51:00,56.7,54.4,29.88,WNW,284,1.2,0.0,92,0.03,-RA,OVC,0.04,0.0,WeatherDisplay:10.37,2013-08-09 03:51:00,
2013-08-09 04:56:00,56.8,54.5,29.88,WNW,284,0.0,0.0,92,0.03,-RA,OVC,0.04,0.0,WeatherDisplay:10.37,2013-08-09 03:56:00,
2013-08-09 05:01:00,56.8,54.8,29.88,WNW,284,0.0,0.0,93,0.03,-RA,OVC,0.04,0.0,WeatherDisplay:10.37,2013-08-09 04:01:00,
2013-08-09 05:06:00,56.9,54.9,29.88,West,281,0.0,0.0,93,0.02,-RA,OVC,0.04,0.0,WeatherDisplay:10.37,2013-08-09 04:06:00,
2013-08-09 05:11:00,57.0,55.0,29.87,SW,221,1.2,1.2,93,0.02,-RA,OVC,0.04,0.0,WeatherDisplay:10.37,2013-08-09 04:11:00,
2013-08-09 05:16:00,57.0,55.0,29.87,West,269,0.0,0.0,93,0.02,-RA,OVC,0.04,0.0,WeatherDisplay:10.37,2013-08-09 04:16:00,
2013-08-09 05:21:00,57.1,55.1,29.87,West,269,1.2,1.2,93,0.02,-RA,OVC,0.04,0.0,WeatherDisplay:10.37,2013-08-09 04:21:00,
2013-08-09 05:26:00,57.1,55.1,29.87,West,263,0.0,0.0,93,0.01,-RA,OVC,0.04,0.0,WeatherDisplay:10.37,2013-08-09 04:26:00,
2013-08-09 05:31:00,57.1,55.1,29.87,West,263,0.0,0.0,93,0.01,BKN,OVC,0.04,0.0,WeatherDisplay:10.37,2013-08-09 04:31:00,
2013-08-09 05:36:00,57.1,55.1,29.87,SSW,208,1.2,1.2,93,0.01,BKN,OVC,0.04,0.0,WeatherDisplay:10.37,2013-08-09 04:36:00,
2013-08-09 05:41:00,57.2,55.2,29.87,SSW,210,0.0,0.0,93,0.01,BKN,OVC,0.04,0.0,WeatherDisplay:10.37,2013-08-09 04:41:00,
2013-08-09 05:46:00,57.2,55.2,29.87,SW,217,0.0,0.0,93,0.01,BKN,OVC,0.04,0.0,WeatherDisplay:10.37,2013-08-09 04:46:00,
2013-08-09 05:51:00,57.2,55.2,29.87,SW,222,1.2,0.0,93,0.00,BKN,OVC,0.04,0.0,WeatherDisplay:10.37,2013-08-09 04:51:00,
2013-08-09 05:56:00,57.2,55.2,29.87,WNW,284,0.0,0.0,93,0.00,BKN,OVC,0.04,0.0,WeatherDisplay:10.37,2013-08-09 04:56:00,
2013-08-09 06:01:00,57.2,55.2,29.87,West,262,1.2,1.2,93,0.00,SCT,OVC,0.04,0.0,WeatherDisplay:10.37,2013-08-09 05:01:00,
2013-08-09 06:06:00,57.2,55.5,29.87,West,262,0.0,0.0,94,0.00,SCT,OVC,0.04,0.0,WeatherDisplay:10.37,2013-08-09 05:06:00,
2013-08-09 06:11:00,57.2,55.2,29.87,West,262,0.0,0.0,93,0.00,SCT,OVC,0.04,0.0,WeatherDisplay:10.37,2013-08-09 05:11:00,
2013-08-09 06:16:00,57.2,55.5,29.87,West,262,0.0,0.0,94,0.00,SCT,OVC,0.04,0.0,WeatherDisplay:10.37,2013-08-09 05:16:00,
2013-08-09 06:21:00,57.2,55.5,29.88,West,263,0.0,0.0,94,0.00,SCT,OVC,0.04,0.0,WeatherDisplay:10.37,2013-08-09 05:21:00,
2013-08-09 06:26:00,57.2,55.5,29.88,West,263,0.0,0.0,94,0.00,SCT,OVC,0.04,0.0,WeatherDisplay:10.37,2013-08-09 05:26:00,
2013-08-09 06:31:00,57.3,55.6,29.88,West,263,0.0,0.0,94,0.00,SCT,OVC,0.04,0.0,WeatherDisplay:10.37,2013-08-09 05:31:00,
2013-08-09 06:36:00,57.3,55.6,29.88,West,263,0.0,0.0,94,0.00,SCT,OVC,0.04,0.0,WeatherDisplay:10.37,2013-08-09 05:36:00,
2013-08-09 06:41:00,57.4,55.7,29.88,West,263,0.0,0.0,94,0.00,SCT,OVC,0.04,0.0,WeatherDisplay:10.37,2013-08-09 05:41:00,
2013-08-09 06:46:00,57.5,55.8,29.88,West,263,0.0,0.0,94,0.00,OVC,,0.04,0.0,WeatherDisplay:10.37,2013-08-09 05:46:00,
2013-08-09 06:51:00,57.5,55.8,29.88,West,263,0.0,0.0,94,0.00,OVC,,0.04,0.0,WeatherDisplay:10.37,2013-08-09 05:51:00,
2013-08-09 06:56:00,57.6,55.9,29.89,West,263,0.0,0.0,94,0.00,OVC,,0.04,0.0,WeatherDisplay:10.37,2013-08-09 05:56:00,
2013-08-09 07:01:00,57.7,56.0,29.89,West,264,0.0,0.0,94,0.00,OVC,,0.04,0.0,WeatherDisplay:10.37,2013-08-09 06:01:00,
2013-08-09 07:06:00,57.8,56.1,29.89,West,264,0.0,0.0,94,0.00,OVC,,0.04,0.0,WeatherDisplay:10.37,2013-08-09 06:06:00,
2013-08-09 07:11:00,58.0,56.3,29.89,West,264,0.0,0.0,94,0.01,RA,OVC,0.05,0.0,WeatherDisplay:10.37,2013-08-09 06:11:00,
2013-08-09 07:16:00,58.0,56.3,29.89,WSW,253,0.0,0.0,94,0.01,RA,OVC,0.05,0.0,WeatherDisplay:10.37,2013-08-09 06:16:00,
2013-08-09 07:21:00,58.3,56.6,29.89,WSW,253,0.0,0.0,94,0.01,OVC,,0.05,0.0,WeatherDisplay:10.37,2013-08-09 06:21:00,
2013-08-09 07:26:00,58.5,56.8,29.89,WSW,253,0.0,0.0,94,0.01,OVC,,0.05,0.0,WeatherDisplay:10.37,2013-08-09 06:26:00,
2013-08-09 07:31:00,58.4,56.7,29.89,SSE,167,0.0,0.0,94,0.01,BKN,OVC,0.05,0.0,WeatherDisplay:10.37,2013-08-09 06:31:00,
2013-08-09 07:36:00,58.5,56.8,29.89,SSE,167,0.0,0.0,94,0.01,BKN,OVC,0.05,0.0,WeatherDisplay:10.37,2013-08-09 06:36:00,
2013-08-09 07:41:00,58.6,56.9,29.90,SSE,167,0.0,0.0,94,0.01,BKN,OVC,0.05,0.0,WeatherDisplay:10.37,2013-08-09 06:41:00,
2013-08-09 07:46:00,58.5,56.8,29.90,SSE,167,0.0,0.0,94,0.01,BKN,OVC,0.05,0.0,WeatherDisplay:10.37,2013-08-09 06:46:00,
2013-08-09 07:51:00,58.6,56.9,29.90,SSE,167,0.0,0.0,94,0.01,BKN,OVC,0.05,0.0,WeatherDisplay:10.37,2013-08-09 06:51:00,
2013-08-09 07:56:00,58.6,56.9,29.90,ESE,122,2.3,2.3,94,0.01,BKN,OVC,0.05,0.0,WeatherDisplay:10.37,2013-08-09 06:56:00,
2013-08-09 08:01:00,58.5,56.5,29.90,ESE,122,0.0,0.0,93,0.01,SCT,OVC,0.05,0.0,WeatherDisplay:10.37,2013-08-09 07:01:00,
2013-08-09 08:06:00,58.5,56.5,29.90,ESE,122,0.0,0.0,93,0.01,SCT,OVC,0.05,0.0,WeatherDisplay:10.37,2013-08-09 07:06:00,
2013-08-09 08:11:00,58.6,56.6,29.90,ESE,123,0.0,0.0,93,0.00,SCT,OVC,0.05,0.0,WeatherDisplay:10.37,2013-08-09 07:11:00,
2013-08-09 08:16:00,58.6,56.9,29.90,SE,132,0.0,0.1,94,0.00,SCT,OVC,0.05,0.0,WeatherDisplay:10.37,2013-08-09 07:16:00,
2013-08-09 08:21:00,58.7,57.0,29.90,West,275,0.0,0.0,94,0.00,SCT,OVC,0.05,0.0,WeatherDisplay:10.37,2013-08-09 07:21:00,
2013-08-09 08:26:00,58.9,57.2,29.91,West,259,1.2,1.2,94,0.00,SCT,OVC,0.05,0.0,WeatherDisplay:10.37,2013-08-09 07:26:00,
2013-08-09 08:31:00,59.0,57.0,29.91,West,262,0.0,0.0,93,0.00,BKN,OVC,0.05,0.0,WeatherDisplay:10.37,2013-08-09 07:31:00,
2013-08-09 08:36:00,59.2,57.5,29.91,WSW,257,0.0,0.1,94,0.00,BKN,OVC,0.05,0.0,WeatherDisplay:10.37,2013-08-09 07:36:00,
2013-08-09 08:41:00,59.3,57.3,29.91,NW,318,0.0,0.0,93,0.00,BKN,OVC,0.05,0.0,WeatherDisplay:10.37,2013-08-09 07:41:00,
2013-08-09 08:46:00,59.4,57.4,29.91,NW,318,0.0,0.0,93,0.00,BKN,OVC,0.05,0.0,WeatherDisplay:10.37,2013-08-09 07:46:00,
2013-08-09 08:51:00,59.7,57.7,29.91,NW,318,0.0,0.0,93,0.00,BKN,OVC,0.05,0.0,WeatherDisplay:10.37,2013-08-09 07:51:00,
2013-08-09 08:56:00,60.0,58.0,29.92,NW,318,0.0,0.0,93,0.00,BKN,OVC,0.05,0.0,WeatherDisplay:10.37,2013-08-09 07:56:00,
2013-08-09 09:02:00,60.4,58.4,29.92,NW,318,0.0,0.0,93,0.00,BKN,OVC,0.05,0.0,WeatherDisplay:10.37,2013-08-09 08:02:00,
2013-08-09 09:07:00,60.7,58.4,29.92,NW,304,0.0,0.0,92,0.00,BKN,OVC,0.05,0.0,WeatherDisplay:10.37,2013-08-09 08:07:00,
2013-08-09 09:12:00,60.9,58.3,29.92,NW,304,0.0,0.0,91,0.00,BKN,OVC,0.05,0.0,WeatherDisplay:10.37,2013-08-09 08:12:00,
2013-08-09 09:17:00,60.9,57.9,29.92,ENE,73,0.0,0.0,90,0.00,BKN,OVC,0.05,0.0,WeatherDisplay:10.37,2013-08-09 08:17:00,
2013-08-09 09:22:00,61.0,58.0,29.92,SW,236,1.2,0.0,90,0.00,BKN,OVC,0.05,0.0,WeatherDisplay:10.37,2013-08-09 08:22:00,
2013-08-09 09:27:00,61.1,57.8,29.92,NW,312,0.0,0.0,89,0.00,BKN,OVC,0.05,0.0,WeatherDisplay:10.37,2013-08-09 08:27:00,
2013-08-09 09:32:00,61.2,57.9,29.93,NNE,32,0.0,0.0,89,0.00,BKN,OVC,0.05,0.0,WeatherDisplay:10.37,2013-08-09 08:32:00,
2013-08-09 09:37:00,61.0,57.4,29.93,SW,236,0.0,0.0,88,0.00,BKN,OVC,0.05,0.0,WeatherDisplay:10.37,2013-08-09 08:37:00,
2013-08-09 09:42:00,60.9,57.3,29.93,West,270,0.0,0.1,88,0.00,BKN,OVC,0.05,0.0,WeatherDisplay:10.37,2013-08-09 08:42:00,
2013-08-09 09:47:00,60.7,57.1,29.93,NNW,330,1.2,0.0,88,0.00,BKN,OVC,0.05,0.0,WeatherDisplay:10.37,2013-08-09 08:47:00,
2013-08-09 09:52:00,60.8,57.5,29.93,SW,224,1.2,0.0,89,0.00,BKN,OVC,0.05,0.0,WeatherDisplay:10.37,2013-08-09 08:52:00,
2013-08-09 09:57:00,60.9,57.3,29.93,NW,326,0.0,0.0,88,0.00,BKN,OVC,0.05,0.0,WeatherDisplay:10.37,2013-08-09 08:57:00,
2013-08-09 10:02:00,61.0,57.4,29.94,NW,307,0.0,0.0,88,0.00,BKN,OVC,0.05,0.0,WeatherDisplay:10.37,2013-08-09 09:02:00,
2013-08-09 10:07:00,61.1,57.5,29.93,WNW,301,0.0,0.0,88,0.00,BKN,OVC,0.05,0.0,WeatherDisplay:10.37,2013-08-09 09:07:00,
2013-08-09 10:12:00,61.3,57.7,29.94,WNW,301,1.2,0.0,88,0.00,BKN,OVC,0.05,0.0,WeatherDisplay:10.37,2013-08-09 09:12:00,
2013-08-09 10:17:00,61.3,57.4,29.94,WNW,300,0.0,0.0,87,0.00,BKN,OVC,0.05,0.0,WeatherDisplay:10.37,2013-08-09 09:17:00,
2013-08-09 10:22:00,61.4,57.5,29.94,NW,315,0.0,0.0,87,0.00,BKN,OVC,0.05,0.0,WeatherDisplay:10.37,2013-08-09 09:22:00,
2013-08-09 10:27:00,61.5,57.6,29.94,NW,314,1.2,1.2,87,0.00,BKN,OVC,0.05,0.0,WeatherDisplay:10.37,2013-08-09 09:27:00,
2013-08-09 10:32:00,61.6,57.4,29.94,NW,314,1.2,1.2,86,0.00,BKN,OVC,0.05,0.0,WeatherDisplay:10.37,2013-08-09 09:32:00,
2013-08-09 10:37:00,61.9,57.7,29.94,NNW,340,1.2,1.2,86,0.00,BKN,OVC,0.05,0.0,WeatherDisplay:10.37,2013-08-09 09:37:00,
2013-08-09 10:42:00,62.2,57.6,29.94,NW,320,1.2,1.2,85,0.00,BKN,OVC,0.05,0.0,WeatherDisplay:10.37,2013-08-09 09:42:00,
2013-08-09 10:47:00,62.4,57.5,29.94,WNW,302,1.0,0.0,84,0.00,BKN,OVC,0.05,0.0,WeatherDisplay:10.37,2013-08-09 09:47:00,
2013-08-09 10:52:00,62.6,57.4,29.94,NNW,331,2.3,2.3,83,0.00,BKN,OVC,0.05,0.0,WeatherDisplay:10.37,2013-08-09 09:52:00,
2013-08-09 10:57:00,63.0,57.8,29.94,NNW,330,1.2,0.0,83,0.00,BKN,OVC,0.05,0.0,WeatherDisplay:10.37,2013-08-09 09:57:00,
2013-08-09 11:02:00,63.5,58.2,29.94,NW,323,0.0,0.0,83,0.00,BKN,OVC,0.05,0.0,WeatherDisplay:10.37,2013-08-09 10:02:00,
2013-08-09 11:07:00,63.9,58.0,29.94,NW,314,1.2,1.2,81,0.00,BKN,OVC,0.05,0.0,WeatherDisplay:10.37,2013-08-09 10:07:00,
2013-08-09 11:12:00,64.3,58.3,29.95,NNW,336,1.2,1.2,81,0.00,BKN,OVC,0.05,0.0,WeatherDisplay:10.37,2013-08-09 10:12:00,
2013-08-09 11:17:00,64.5,58.2,29.95,NNE,22,1.2,1.2,80,0.00,BKN,OVC,0.05,0.0,WeatherDisplay:10.37,2013-08-09 10:17:00,
2013-08-09 11:22:00,64.5,57.5,29.95,SW,225,1.2,1.2,78,0.00,BKN,OVC,0.05,0.0,WeatherDisplay:10.37,2013-08-09 10:22:00,
2013-08-09 11:27:00,64.4,57.0,29.95,NW,311,1.2,1.2,77,0.00,BKN,OVC,0.05,0.0,WeatherDisplay:10.37,2013-08-09 10:27:00,
2013-08-09 11:32:00,64.5,57.5,29.95,NNW,336,1.2,1.2,78,0.00,BKN,OVC,0.05,0.0,WeatherDisplay:10.37,2013-08-09 10:32:00,
2013-08-09 11:37:00,64.9,57.2,29.95,WNW,295,1.2,1.2,76,0.00,BKN,OVC,0.05,0.0,WeatherDisplay:10.37,2013-08-09 10:37:00,
2013-08-09 11:42:00,64.9,57.2,29.95,NNE,12,2.3,2.3,76,0.00,BKN,OVC,0.05,0.0,WeatherDisplay:10.37,2013-08-09 10:42:00,
2013-08-09 11:47:00,64.6,56.9,29.96,WSW,257,1.2,1.2,76,0.00,BKN,OVC,0.05,0.0,WeatherDisplay:10.37,2013-08-09 10:47:00,
2013-08-09 11:52:00,64.3,56.9,29.96,NW,318,1.2,0.0,77,0.00,BKN,OVC,0.05,0.0,WeatherDisplay:10.37,2013-08-09 10:52:00,
2013-08-09 11:57:00,64.2,56.8,29.96,NW,319,1.2,0.0,77,0.00,BKN,OVC,0.05,0.0,WeatherDisplay:10.37,2013-08-09 10:57:00,
2013-08-09 12:02:00,64.3,56.9,29.96,North,354,1.2,1.2,77,0.00,BKN,OVC,0.05,0.0,WeatherDisplay:10.37,2013-08-09 11:02:00,
2013-08-09 12:07:00,64.3,57.3,29.96,ENE,61,1.2,1.2,78,0.00,BKN,OVC,0.05,0.0,WeatherDisplay:10.37,2013-08-09 11:07:00,
2013-08-09 12:12:00,64.1,56.7,29.96,ENE,71,1.2,1.2,77,0.00,BKN,OVC,0.05,0.0,WeatherDisplay:10.37,2013-08-09 11:12:00,
2013-08-09 12:17:00,64.0,56.6,29.96,North,354,1.2,1.2,77,0.00,BKN,OVC,0.05,0.0,WeatherDisplay:10.37,2013-08-09 11:17:00,
2013-08-09 12:22:00,63.9,56.2,29.96,NNW,334,2.3,2.3,76,0.00,BKN,OVC,0.05,0.0,WeatherDisplay:10.37,2013-08-09 11:22:00,
2013-08-09 12:27:00,64.3,56.6,29.96,NW,319,1.2,1.2,76,0.00,BKN,OVC,0.05,0.0,WeatherDisplay:10.37,2013-08-09 11:27:00,
2013-08-09 12:32:00,64.7,57.0,29.96,NNW,336,1.2,1.2,76,0.00,BKN,OVC,0.05,0.0,WeatherDisplay:10.37,2013-08-09 11:32:00,
2013-08-09 12:37:00,65.1,56.6,29.97,NNW,329,2.3,2.3,74,0.00,BKN,OVC,0.05,0.0,WeatherDisplay:10.37,2013-08-09 11:37:00,
2013-08-09 12:42:00,65.4,56.9,29.97,NNW,332,3.5,3.5,74,0.00,BKN,OVC,0.05,0.0,WeatherDisplay:10.37,2013-08-09 11:42:00,
2013-08-09 12:47:00,65.3,56.4,29.97,NNW,347,2.3,2.3,73,0.00,BKN,OVC,0.05,0.0,WeatherDisplay:10.37,2013-08-09 11:47:00,
2013-08-09 12:52:00,65.1,56.2,29.97,NNW,328,3.5,3.5,73,0.00,BKN,OVC,0.05,0.0,WeatherDisplay:10.37,2013-08-09 11:52:00,
2013-08-09 12:57:00,65.9,57.0,29.97,ENE,67,1.2,1.2,73,0.00,BKN,OVC,0.05,0.0,WeatherDisplay:10.37,2013-08-09 11:57:00,
2013-08-09 13:02:00,66.9,56.8,29.97,SE,129,2.3,2.3,70,0.00,SCT,OVC,0.05,0.0,WeatherDisplay:10.37,2013-08-09 12:02:00,
2013-08-09 13:07:00,67.6,57.1,29.97,NNW,335,2.3,2.3,69,0.00,SCT,OVC,0.05,0.0,WeatherDisplay:10.37,2013-08-09 12:07:00,
2013-08-09 13:12:00,68.0,57.0,29.97,NW,325,2.3,2.3,68,0.00,SCT,OVC,0.05,0.0,WeatherDisplay:10.37,2013-08-09 12:12:00,
2013-08-09 13:17:00,68.1,57.1,29.97,NW,325,2.3,2.3,68,0.00,SCT,OVC,0.05,0.0,WeatherDisplay:10.37,2013-08-09 12:17:00,
2013-08-09 13:22:00,67.5,56.2,29.97,NNW,330,3.5,3.5,67,0.00,SCT,OVC,0.05,0.0,WeatherDisplay:10.37,2013-08-09 12:22:00,
2013-08-09 13:27:00,67.5,56.6,29.97,WNW,288,1.2,1.2,68,0.00,SCT,OVC,0.05,0.0,WeatherDisplay:10.37,2013-08-09 12:27:00,
2013-08-09 13:32:00,67.6,56.7,29.97,NW,311,2.3,2.3,68,0.00,BKN,OVC,0.05,0.0,WeatherDisplay:10.37,2013-08-09 12:32:00,
2013-08-09 13:37:00,67.2,55.9,29.97,North,5,1.2,1.2,67,0.00,BKN,OVC,0.05,0.0,WeatherDisplay:10.37,2013-08-09 12:37:00,
2013-08-09 13:42:00,67.1,56.2,29.97,NNW,329,2.3,2.3,68,0.00,BKN,OVC,0.05,0.0,WeatherDisplay:10.37,2013-08-09 12:42:00,
2013-08-09 13:47:00,67.4,56.5,29.98,NNW,348,2.3,2.3,68,0.00,BKN,OVC,0.05,0.0,WeatherDisplay:10.37,2013-08-09 12:47:00,
2013-08-09 13:52:00,67.2,55.5,29.98,NW,321,2.3,2.3,66,0.00,BKN,OVC,0.05,0.0,WeatherDisplay:10.37,2013-08-09 12:52:00,
2013-08-09 13:57:00,67.1,55.4,29.98,North,4,1.2,1.2,66,0.00,BKN,OVC,0.05,0.0,WeatherDisplay:10.37,2013-08-09 12:57:00,
2013-08-09 14:02:00,67.5,55.7,29.98,NW,321,1.2,1.2,66,0.00,SCT,OVC,0.05,0.0,WeatherDisplay:10.37,2013-08-09 13:02:00,
2013-08-09 14:07:00,67.5,55.7,29.98,NNW,335,1.2,1.2,66,0.00,SCT,OVC,0.05,0.0,WeatherDisplay:10.37,2013-08-09 13:07:00,
2013-08-09 14:12:00,67.6,55.4,29.98,NNE,15,1.2,1.2,65,0.00,SCT,OVC,0.05,0.0,WeatherDisplay:10.37,2013-08-09 13:12:00,
2013-08-09 14:17:00,67.7,56.3,29.98,SE,146,1.2,0.0,67,0.00,SCT,OVC,0.05,0.0,WeatherDisplay:10.37,2013-08-09 13:17:00,
2013-08-09 14:22:00,68.3,54.8,29.98,North,359,4.0,4.0,62,0.00,SCT,OVC,0.05,0.0,WeatherDisplay:10.37,2013-08-09 13:22:00,
2013-08-09 14:27:00,68.6,55.1,29.98,NNE,29,4.6,4.6,62,0.00,SCT,OVC,0.05,0.0,WeatherDisplay:10.37,2013-08-09 13:27:00,
2013-08-09 14:32:00,68.5,54.5,29.99,NNW,332,3.5,3.5,61,0.00,SCT,OVC,0.05,0.0,WeatherDisplay:10.37,2013-08-09 13:32:00,
2013-08-09 14:37:00,67.5,54.5,29.99,NW,311,3.5,3.5,63,0.00,SCT,OVC,0.05,0.0,WeatherDisplay:10.37,2013-08-09 13:37:00,
2013-08-09 14:42:00,66.4,53.8,29.99,NW,309,3.5,3.5,64,0.00,SCT,OVC,0.05,0.0,WeatherDisplay:10.37,2013-08-09 13:42:00,
2013-08-09 14:47:00,66.6,55.3,29.99,SSW,208,2.3,2.3,67,0.00,SCT,OVC,0.05,0.0,WeatherDisplay:10.37,2013-08-09 13:47:00,
2013-08-09 14:52:00,67.0,54.0,30.00,NNE,27,4.6,4.6,63,0.00,SCT,OVC,0.05,0.0,WeatherDisplay:10.37,2013-08-09 13:52:00,
2013-08-09 14:58:00,66.8,54.7,30.00,NE,39,3.5,3.5,65,0.00,SCT,OVC,0.05,0.0,WeatherDisplay:10.37,2013-08-09 13:58:00,
2013-08-09 15:03:00,67.2,54.2,30.00,NW,321,3.5,3.5,63,0.00,SCT,OVC,0.05,0.0,WeatherDisplay:10.37,2013-08-09 14:03:00,
2013-08-09 15:08:00,67.9,54.4,30.00,NNW,347,3.5,3.5,62,0.00,SCT,OVC,0.05,0.0,WeatherDisplay:10.37,2013-08-09 14:08:00,
2013-08-09 15:13:00,67.8,54.3,30.00,SSW,212,3.5,3.5,62,0.00,SCT,OVC,0.05,0.0,WeatherDisplay:10.37,2013-08-09 14:13:00,
2013-08-09 15:18:00,68.3,54.3,30.00,NNW,344,3.5,3.5,61,0.00,SCT,OVC,0.05,0.0,WeatherDisplay:10.37,2013-08-09 14:18:00,
2013-08-09 15:23:00,68.2,53.3,30.00,NNE,25,3.5,3.5,59,0.00,SCT,OVC,0.05,0.0,WeatherDisplay:10.37,2013-08-09 14:23:00,
2013-08-09 15:28:00,68.1,54.6,30.00,North,354,3.5,3.5,62,0.00,SCT,OVC,0.05,0.0,WeatherDisplay:10.37,2013-08-09 14:28:00,
2013-08-09 15:36:00,68.0,53.6,30.00,NNW,342,2.3,2.3,60,0.00,SCT,OVC,0.05,0.0,WeatherDisplay:10.37,2013-08-09 14:36:00,
2013-08-09 15:41:00,66.8,52.5,30.00,NW,323,3.5,3.5,60,0.00,SCT,OVC,0.05,0.0,WeatherDisplay:10.37,2013-08-09 14:41:00,
2013-08-09 15:46:00,66.2,52.3,30.00,NNW,335,2.3,2.3,61,0.00,SCT,OVC,0.05,0.0,WeatherDisplay:10.37,2013-08-09 14:46:00,
2013-08-09 15:51:00,65.6,52.2,30.00,NNW,329,2.3,2.3,62,0.00,FEW,OVC,0.05,0.0,WeatherDisplay:10.37,2013-08-09 14:51:00,
2013-08-09 15:56:00,65.1,52.2,30.01,ESE,115,1.2,1.2,63,0.00,FEW,OVC,0.05,0.0,WeatherDisplay:10.37,2013-08-09 14:56:00,
2013-08-09 16:01:00,65.0,52.5,30.01,North,354,2.3,2.3,64,0.00,FEW,OVC,0.05,0.0,WeatherDisplay:10.37,2013-08-09 15:01:00,
2013-08-09 16:06:00,65.6,53.1,30.00,NNW,340,2.3,2.3,64,0.00,BKN,OVC,0.05,0.0,WeatherDisplay:10.37,2013-08-09 15:06:00,
2013-08-09 16:11:00,67.0,53.1,30.00,NNW,335,2.3,2.3,61,0.00,BKN,OVC,0.05,0.0,WeatherDisplay:10.37,2013-08-09 15:11:00,
2013-08-09 16:16:00,67.5,52.2,30.00,NW,318,3.5,3.5,58,0.00,BKN,OVC,0.05,0.0,WeatherDisplay:10.37,2013-08-09 15:16:00,
2013-08-09 16:21:00,67.9,53.5,30.00,SE,144,1.2,1.2,60,0.00,BKN,OVC,0.05,0.0,WeatherDisplay:10.37,2013-08-09 15:21:00,
2013-08-09 16:26:00,68.9,53.0,30.00,WNW,295,1.2,1.2,57,0.00,BKN,OVC,0.05,0.0,WeatherDisplay:10.37,2013-08-09 15:26:00,
2013-08-09 16:31:00,69.4,53.0,30.00,NE,41,1.2,1.2,56,0.00,SCT,OVC,0.05,0.0,WeatherDisplay:10.37,2013-08-09 15:31:00,
2013-08-09 16:36:00,69.5,53.6,30.00,NNW,337,1.2,1.2,57,0.00,SCT,OVC,0.05,0.0,WeatherDisplay:10.37,2013-08-09 15:36:00,
2013-08-09 16:41:00,69.9,53.0,30.00,North,354,2.3,2.3,55,0.00,SCT,OVC,0.05,0.0,WeatherDisplay:10.37,2013-08-09 15:41:00,
2013-08-09 16:46:00,69.2,52.3,30.00,NNW,327,2.3,2.3,55,0.00,SCT,OVC,0.05,0.0,WeatherDisplay:10.37,2013-08-09 15:46:00,
2013-08-09 16:51:00,69.2,52.8,30.00,NNE,20,2.3,2.3,56,0.00,SCT,OVC,0.05,0.0,WeatherDisplay:10.37,2013-08-09 15:51:00,
2013-08-09 16:56:00,69.8,53.4,30.00,North,358,1.2,1.2,56,0.00,SCT,OVC,0.05,0.0,WeatherDisplay:10.37,2013-08-09 15:56:00,
2013-08-09 17:01:00,70.0,53.6,30.00,NW,315,2.3,2.3,56,0.00,SCT,OVC,0.05,0.0,WeatherDisplay:10.37,2013-08-09 16:01:00,
2013-08-09 17:06:00,69.9,53.0,30.01,North,1,2.3,2.3,55,0.00,SCT,OVC,0.05,0.0,WeatherDisplay:10.37,2013-08-09 16:06:00,
2013-08-09 17:11:00,69.0,52.6,30.00,North,11,1.2,1.2,56,0.00,SCT,OVC,0.05,0.0,WeatherDisplay:10.37,2013-08-09 16:11:00,
2013-08-09 17:16:00,68.4,52.6,30.01,NNW,328,2.3,2.3,57,0.00,SCT,OVC,0.05,0.0,WeatherDisplay:10.37,2013-08-09 16:16:00,
2013-08-09 17:21:00,68.2,52.9,30.01,NNW,336,2.3,2.3,58,0.00,SCT,OVC,0.05,0.0,WeatherDisplay:10.37,2013-08-09 16:21:00,
2013-08-09 17:26:00,67.6,53.2,30.01,NW,311,2.3,2.3,60,0.00,SCT,OVC,0.05,0.0,WeatherDisplay:10.37,2013-08-09 16:26:00,
2013-08-09 17:31:00,67.0,53.1,30.01,NW,312,3.5,3.5,61,0.00,FEW,OVC,0.05,0.0,WeatherDisplay:10.37,2013-08-09 16:31:00,
2013-08-09 17:36:00,66.2,53.2,30.01,NW,315,2.3,2.3,63,0.00,FEW,OVC,0.05,0.0,WeatherDisplay:10.37,2013-08-09 16:36:00,
2013-08-09 17:41:00,66.1,54.0,30.02,ESE,122,2.3,2.3,65,0.00,FEW,OVC,0.05,0.0,WeatherDisplay:10.37,2013-08-09 16:41:00,
2013-08-09 17:46:00,65.6,52.7,30.02,NNW,330,2.3,2.3,63,0.00,FEW,OVC,0.05,0.0,WeatherDisplay:10.37,2013-08-09 16:46:00,
2013-08-09 17:51:00,65.1,53.5,30.02,East,85,3.5,3.5,66,0.00,FEW,OVC,0.05,0.0,WeatherDisplay:10.37,2013-08-09 16:51:00,
2013-08-09 17:56:00,64.9,52.8,30.02,West,259,2.3,2.3,65,0.00,FEW,OVC,0.05,0.0,WeatherDisplay:10.37,2013-08-09 16:56:00,
2013-08-09 18:01:00,64.6,52.6,30.02,West,259,1.2,1.2,65,0.00,FEW,OVC,0.05,0.0,WeatherDisplay:10.37,2013-08-09 17:01:00,
2013-08-09 18:06:00,64.4,52.8,30.02,NNW,342,1.2,1.2,66,0.00,FEW,OVC,0.05,0.0,WeatherDisplay:10.37,2013-08-09 17:06:00,
2013-08-09 18:11:00,63.9,51.1,30.02,NNW,332,3.5,3.5,63,0.00,FEW,OVC,0.05,0.0,WeatherDisplay:10.37,2013-08-09 17:11:00,
2013-08-09 18:16:00,63.9,51.9,30.02,NW,318,1.2,1.2,65,0.00,FEW,OVC,0.05,0.0,WeatherDisplay:10.37,2013-08-09 17:16:00,
2013-08-09 18:21:00,63.7,51.7,30.02,NNE,29,2.3,2.3,65,0.00,FEW,OVC,0.05,0.0,WeatherDisplay:10.37,2013-08-09 17:21:00,
2013-08-09 18:26:00,63.6,51.2,30.02,NW,319,2.3,2.3,64,0.00,FEW,OVC,0.05,0.0,WeatherDisplay:10.37,2013-08-09 17:26:00,
2013-08-09 18:31:00,63.6,51.6,30.03,North,352,1.2,1.2,65,0.00,FEW,OVC,0.05,0.0,WeatherDisplay:10.37,2013-08-09 17:31:00,
2013-08-09 18:36:00,63.5,51.9,30.03,NNW,330,1.2,1.2,66,0.00,FEW,OVC,0.05,0.0,WeatherDisplay:10.37,2013-08-09 17:36:00,
2013-08-09 18:41:00,63.4,51.4,30.03,NW,320,2.3,2.3,65,0.00,FEW,OVC,0.05,0.0,WeatherDisplay:10.37,2013-08-09 17:41:00,
2013-08-09 18:46:00,63.2,51.2,30.03,ENE,58,2.3,2.3,65,0.00,FEW,OVC,0.05,0.0,WeatherDisplay:10.37,2013-08-09 17:46:00,
2013-08-09 18:51:00,63.5,51.5,30.03,NW,321,1.2,1.2,65,0.00,FEW,OVC,0.05,0.0,WeatherDisplay:10.37,2013-08-09 17:51:00,
2013-08-09 18:56:00,63.6,51.6,30.03,NW,321,3.5,3.5,65,0.00,FEW,OVC,0.05,0.0,WeatherDisplay:10.37,2013-08-09 17:56:00,
2013-08-09 19:01:00,63.2,50.4,30.03,NNW,330,2.3,2.3,63,0.00,FEW,OVC,0.05,0.0,WeatherDisplay:10.37,2013-08-09 18:01:00,
2013-08-09 19:06:00,63.0,51.5,30.04,NW,304,1.2,1.2,66,0.00,FEW,OVC,0.05,0.0,WeatherDisplay:10.37,2013-08-09 18:06:00,
2013-08-09 19:11:00,62.9,51.0,30.04,NNW,329,3.5,3.5,65,0.00,FEW,OVC,0.05,0.0,WeatherDisplay:10.37,2013-08-09 18:11:00,
2013-08-09 19:16:00,62.7,51.2,30.04,SSW,193,1.2,1.2,66,0.00,FEW,OVC,0.05,0.0,WeatherDisplay:10.37,2013-08-09 18:16:00,
2013-08-09 19:21:00,62.3,51.2,30.04,NW,318,1.2,0.0,67,0.00,FEW,OVC,0.05,0.0,WeatherDisplay:10.37,2013-08-09 18:21:00,
2013-08-09 21:29:00,56.9,49.1,30.09,NW,319,1.2,1.2,75,0.00,FEW,OVC,0.05,0.0,WeatherDisplay:10.37,2013-08-09 20:29:00,
2013-08-09 21:34:00,56.8,49.0,30.09,NW,319,0.0,0.0,75,0.00,CLR,OVC,0.05,0.0,WeatherDisplay:10.37,2013-08-09 20:34:00,
2013-08-09 21:39:00,56.7,48.9,30.09,NW,321,0.0,0.0,75,0.00,CLR,OVC,0.05,0.0,WeatherDisplay:10.37,2013-08-09 20:39:00,
2013-08-09 21:44:00,56.6,49.1,30.09,NW,321,0.0,0.1,76,0.00,CLR,OVC,0.05,0.0,WeatherDisplay:10.37,2013-08-09 20:44:00,
2013-08-09 21:49:00,56.5,49.0,30.09,NW,321,0.0,0.0,76,0.00,CLR,OVC,0.05,0.0,WeatherDisplay:10.37,2013-08-09 20:49:00,
2013-08-09 21:54:00,56.4,48.9,30.09,NW,321,0.0,0.0,76,0.00,CLR,OVC,0.05,0.0,WeatherDisplay:10.37,2013-08-09 20:54:00,
2013-08-09 21:59:00,56.3,49.2,30.10,NW,321,0.0,0.0,77,0.00,CLR,OVC,0.05,0.0,WeatherDisplay:10.37,2013-08-09 20:59:00,
2013-08-09 22:04:00,56.2,49.4,30.10,NW,320,0.0,0.0,78,0.00,CLR,OVC,0.05,0.0,WeatherDisplay:10.37,2013-08-09 21:04:00,
2013-08-09 22:09:00,56.1,49.3,30.10,NW,320,0.0,0.0,78,0.00,CLR,OVC,0.05,0.0,WeatherDisplay:10.37,2013-08-09 21:09:00,
2013-08-09 22:15:00,55.9,49.1,30.10,NW,321,0.0,0.0,78,0.00,CLR,OVC,0.05,0.0,WeatherDisplay:10.37,2013-08-09 21:15:00,
2013-08-09 22:20:00,55.8,49.4,30.10,NW,321,0.0,0.0,79,0.00,CLR,OVC,0.05,0.0,WeatherDisplay:10.37,2013-08-09 21:20:00,
2013-08-09 22:25:00,55.7,49.3,30.10,NW,321,0.0,0.0,79,0.00,CLR,OVC,0.05,0.0,WeatherDisplay:10.37,2013-08-09 21:25:00,
2013-08-09 22:30:00,55.5,49.1,30.10,NW,321,0.0,0.0,79,0.00,CLR,OVC,0.05,0.0,WeatherDisplay:10.37,2013-08-09 21:30:00,
2013-08-09 22:35:00,55.3,48.9,30.10,NW,321,0.0,0.0,79,0.00,CLR,OVC,0.05,0.0,WeatherDisplay:10.37,2013-08-09 21:35:00,
2013-08-09 22:40:00,55.1,49.0,30.10,NW,321,0.0,0.0,80,0.00,CLR,OVC,0.05,0.0,WeatherDisplay:10.37,2013-08-09 21:40:00,
2013-08-09 22:45:00,55.0,48.9,30.10,NW,321,0.0,0.0,80,0.00,CLR,OVC,0.05,0.0,WeatherDisplay:10.37,2013-08-09 21:45:00,
2013-08-09 22:50:00,54.8,49.1,30.10,NW,321,0.0,0.0,81,0.00,CLR,OVC,0.05,0.0,WeatherDisplay:10.37,2013-08-09 21:50:00,
2013-08-09 22:55:00,54.7,49.3,30.10,NW,320,0.0,0.0,82,0.00,CLR,OVC,0.05,0.0,WeatherDisplay:10.37,2013-08-09 21:55:00,
2013-08-09 23:00:00,54.6,49.2,30.10,NW,321,0.0,0.0,82,0.00,CLR,OVC,0.05,0.0,WeatherDisplay:10.37,2013-08-09 22:00:00,
2013-08-09 23:05:00,54.3,48.9,30.10,NW,321,0.0,0.0,82,0.00,CLR,OVC,0.05,0.0,WeatherDisplay:10.37,2013-08-09 22:05:00,
2013-08-09 23:10:00,54.1,48.7,30.10,NW,321,0.0,0.0,82,0.00,CLR,OVC,0.05,0.0,WeatherDisplay:10.37,2013-08-09 22:10:00,
2013-08-09 23:15:00,53.9,48.5,30.10,NW,321,0.0,0.0,82,0.00,CLR,OVC,0.05,0.0,WeatherDisplay:10.37,2013-08-09 22:15:00,